Time,TemperatureF,DewpointF,PressureIn,WindDirection,WindDirectionDegrees,WindSpeedMPH,WindSpeedGustMPH,Humidity,HourlyPrecipIn,Conditions,Clouds,dailyrainin,SolarRadiationWatts/m^2,SoftwareType,DateUTC
2013-01-31 04:11:00,72.0,67.0,-100.00,NE,53,10.0,14.0,83,0.00,,,-99.99,0.000000,,2013-01-31 14:11:00,
2013-01-31 04:21:00,72.0,67.0,-100.00,NE,53,10.0,14.0,83,0.00,,,-99.99,0.000000,,2013-01-31 14:21:00,
2013-01-31 04:31:00,72.0,67.0,-100.00,NE,53,10.0,14.0,83,0.00,,,-99.99,0.000000,,2013-01-31 14:31:00,
2013-01-31 04:42:00,72.0,67.0,-100.00,NE,53,10.0,14.0,83,0.00,,,-99.99,0.000000,,2013-01-31 14:42:00,
2013-01-31 05:12:00,72.0,67.0,-100.00,ENE,57,11.0,15.0,83,0.00,,,0.02,0.000000,,2013-01-31 15:12:00,
2013-01-31 05:22:00,72.0,67.0,-100.00,ENE,57,11.0,15.0,83,0.00,,,0.02,0.000000,,2013-01-31 15:22:00,
2013-01-31 05:32:00,72.0,67.0,-100.00,ENE,57,11.0,15.0,83,0.00,,,0.02,0.000000,,2013-01-31 15:32:00,
2013-01-31 05:42:00,72.0,67.0,-100.00,ENE,57,11.0,15.0,83,0.00,,,0.02,0.000000,,2013-01-31 15:42:00,
2013-01-31 06:12:00,72.0,66.0,-100.00,NE,50,12.0,14.0,82,0.00,,,0.00,0.000000,,2013-01-31 16:12:00,
2013-01-31 06:21:00,72.0,66.0,-100.00,NE,50,12.0,14.0,82,0.00,,,0.00,0.000000,,2013-01-31 16:21:00,
2013-01-31 06:32:00,72.0,66.0,-100.00,NE,50,12.0,14.0,82,0.00,,,0.00,0.000000,,2013-01-31 16:32:00,
2013-01-31 06:41:00,72.0,66.0,-100.00,NE,50,12.0,14.0,82,0.00,,,0.00,0.000000,,2013-01-31 16:41:00,
2013-01-31 07:12:00,72.0,66.0,-100.00,ENE,57,10.0,15.0,82,0.00,,,0.00,0.000000,,2013-01-31 17:12:00,
2013-01-31 07:22:00,72.0,66.0,-100.00,ENE,57,10.0,15.0,82,0.00,,,0.00,0.000000,,2013-01-31 17:22:00,
2013-01-31 07:31:00,72.0,66.0,-100.00,ENE,57,10.0,15.0,82,0.00,,,0.00,0.000000,,2013-01-31 17:31:00,
2013-01-31 07:43:00,72.0,66.0,-100.00,ENE,57,10.0,15.0,82,0.00,,,0.00,0.000000,,2013-01-31 17:43:00,
2013-01-31 08:12:00,72.0,66.0,-100.00,ENE,57,11.0,14.0,82,0.00,,,0.00,20.000000,,2013-01-31 18:12:00,
2013-01-31 08:21:00,72.0,66.0,-100.00,ENE,57,11.0,14.0,82,0.00,,,0.00,20.000000,,2013-01-31 18:21:00,
2013-01-31 08:32:00,72.0,66.0,-100.00,ENE,57,11.0,14.0,82,0.00,,,0.00,20.000000,,2013-01-31 18:32:00,
2013-01-31 08:42:00,72.0,66.0,-100.00,ENE,57,11.0,14.0,82,0.00,,,0.00,20.000000,,2013-01-31 18:42:00,
2013-01-31 09:12:00,73.0,66.0,-100.00,ENE,58,11.0,15.0,78,0.00,,,0.00,164.000000,,2013-01-31 19:12:00,
2013-01-31 09:21:00,73.0,66.0,-100.00,ENE,58,11.0,15.0,78,0.00,,,0.00,164.000000,,2013-01-31 19:21:00,
2013-01-31 09:32:00,73.0,66.0,-100.00,ENE,58,11.0,15.0,78,0.00,,,0.00,164.000000,,2013-01-31 19:32:00,
2013-01-31 09:42:00,73.0,66.0,-100.00,ENE,58,11.0,15.0,78,0.00,,,0.00,164.000000,,2013-01-31 19:42:00,
2013-01-31 10:11:00,74.0,66.0,-100.00,NE,54,11.0,14.0,77,0.00,,,-99.99,272.000000,,2013-01-31 20:11:00,
2013-01-31 10:21:00,74.0,66.0,-100.00,NE,54,11.0,14.0,77,0.00,,,-99.99,272.000000,,2013-01-31 20:21:00,
2013-01-31 10:31:00,74.0,66.0,-100.00,NE,54,11.0,14.0,77,0.00,,,-99.99,272.000000,,2013-01-31 20:31:00,
2013-01-31 10:41:00,74.0,66.0,-100.00,NE,54,11.0,14.0,77,0.00,,,-99.99,272.000000,,2013-01-31 20:41:00,
2013-01-31 11:12:00,74.0,66.0,-100.00,NE,48,11.0,14.0,76,0.00,,,0.00,359.000000,,2013-01-31 21:12:00,
2013-01-31 11:21:00,74.0,66.0,-100.00,NE,48,11.0,14.0,76,0.00,,,0.00,359.000000,,2013-01-31 21:21:00,
2013-01-31 11:31:00,74.0,66.0,-100.00,NE,48,11.0,14.0,76,0.00,,,0.00,359.000000,,2013-01-31 21:31:00,
2013-01-31 11:42:00,74.0,66.0,-100.00,NE,48,11.0,14.0,76,0.00,,,0.00,359.000000,,2013-01-31 21:42:00,
2013-01-31 12:11:00,74.0,65.0,-100.00,NE,43,12.0,16.0,74,0.00,,,0.00,607.000000,,2013-01-31 22:11:00,
2013-01-31 12:22:00,74.0,65.0,-100.00,NE,43,12.0,16.0,74,0.00,,,0.00,607.000000,,2013-01-31 22:22:00,
2013-01-31 12:32:00,74.0,65.0,-100.00,NE,43,12.0,16.0,74,0.00,,,0.00,607.000000,,2013-01-31 22:32:00,
2013-01-31 12:42:00,74.0,65.0,-100.00,NE,43,12.0,16.0,74,0.00,,,0.00,607.000000,,2013-01-31 22:42:00,